Hourly Weather Rudomeyka

Today, 16 April, Friday

Time Temperature Precipitation Wind Pressure Humidity
00:00 +6°C° 0 mm 5 mps 742 mmHg 95%
01:00 +6°C° 0 mm 5 mps 742 mmHg 95%
02:00 +7°C° 0 mm 5 mps 742 mmHg 95%
03:00 +7°C° 0.2 mm 5 mps 742 mmHg 95%
04:00 +7°C° 0.2 mm 4 mps 742 mmHg 96%
05:00 +7°C° 0.2 mm 4 mps 742 mmHg 97%
06:00 +6°C° 0.7 mm 4 mps 742 mmHg 97%
07:00 +6°C° 0.7 mm 4 mps 742 mmHg 96%
08:00 +6°C° 0.7 mm 5 mps 742 mmHg 96%
09:00 +8°C° 0.2 mm 5 mps 742 mmHg 87%
10:00 +10°C° 0.2 mm 5 mps 742 mmHg 79%
11:00 +12°C° 0.2 mm 5 mps 742 mmHg 70%
12:00 +13°C° 0.5 mm 6 mps 742 mmHg 69%
13:00 +13°C° 0.5 mm 6 mps 743 mmHg 68%
14:00 +12°C° 0.5 mm 7 mps 743 mmHg 66%
15:00 +13°C° 0.5 mm 6 mps 743 mmHg 67%
16:00 +11°C° 0.5 mm 6 mps 743 mmHg 68%
17:00 +12°C° 0.5 mm 5 mps 743 mmHg 69%
18:00 +11°C° 0.1 mm 4 mps 743 mmHg 74%
19:00 +9°C° 0.1 mm 3 mps 744 mmHg 79%
20:00 +8°C° 0.1 mm 3 mps 744 mmHg 85%
21:00 +8°C° 0.1 mm 3 mps 744 mmHg 88%
22:00 +8°C° 0.1 mm 3 mps 744 mmHg 90%
23:00 +7°C° 0.1 mm 3 mps 744 mmHg 93%

Tomorrow, 17 April, Saturday

Time Temperature Precipitation Wind Pressure Humidity
00:00 +7°C° 0 mm 3 mps 745 mmHg 94%
01:00 +7°C° 0 mm 3 mps 745 mmHg 95%
02:00 +5°C° 0 mm 3 mps 745 mmHg 96%
03:00 +5°C° 0 mm 3 mps 745 mmHg 96%
04:00 +5°C° 0 mm 2 mps 745 mmHg 96%
05:00 +5°C° 0 mm 2 mps 745 mmHg 97%
06:00 +6°C° 0 mm 2 mps 746 mmHg 92%
07:00 +7°C° 0 mm 3 mps 746 mmHg 87%
08:00 +9°C° 0 mm 3 mps 747 mmHg 82%
09:00 +10°C° 0.1 mm 3 mps 747 mmHg 76%
10:00 +11°C° 0.1 mm 3 mps 747 mmHg 69%
11:00 +12°C° 0.1 mm 3 mps 747 mmHg 63%
12:00 +13°C° 0.1 mm 4 mps 747 mmHg 59%
13:00 +13°C° 0.1 mm 4 mps 747 mmHg 55%
14:00 +14°C° 0.1 mm 4 mps 747 mmHg 50%
15:00 +14°C° 0 mm 3 mps 747 mmHg 51%
16:00 +14°C° 0 mm 3 mps 747 mmHg 52%
17:00 +14°C° 0 mm 3 mps 747 mmHg 54%
18:00 +12°C° 0.1 mm 3 mps 747 mmHg 64%
19:00 +11°C° 0.1 mm 4 mps 747 mmHg 74%
20:00 +10°C° 0.1 mm 4 mps 747 mmHg 85%
21:00 +8°C° 0.6 mm 4 mps 747 mmHg 87%
22:00 +8°C° 0.6 mm 4 mps 747 mmHg 89%
23:00 +9°C° 0.6 mm 3 mps 747 mmHg 92%

Day after tomorrow, 18 April, Sunday

Time Temperature Precipitation Wind Pressure Humidity
00:00 +8°C° 0.1 mm 4 mps 747 mmHg 91%
01:00 +8°C° 0.1 mm 4 mps 747 mmHg 91%
02:00 +7°C° 0.1 mm 4 mps 747 mmHg 90%
03:00 +7°C° 0 mm 4 mps 747 mmHg 91%
04:00 +6°C° 0 mm 4 mps 747 mmHg 92%
05:00 +6°C° 0 mm 4 mps 747 mmHg 93%
06:00 +6°C° 0 mm 4 mps 747 mmHg 88%
07:00 +7°C° 0 mm 5 mps 747 mmHg 83%
08:00 +7°C° 0 mm 5 mps 747 mmHg 77%
09:00 +8°C° 0 mm 6 mps 747 mmHg 74%
10:00 +9°C° 0 mm 6 mps 747 mmHg 70%
11:00 +10°C° 0 mm 6 mps 747 mmHg 66%
12:00 +10°C° 0 mm 5 mps 747 mmHg 65%
13:00 +10°C° 0 mm 5 mps 748 mmHg 64%
14:00 +9°C° 0 mm 5 mps 748 mmHg 63%
15:00 +10°C° 0 mm 4 mps 748 mmHg 65%
16:00 +10°C° 0 mm 4 mps 748 mmHg 66%
17:00 +10°C° 0 mm 4 mps 748 mmHg 68%
18:00 +8°C° 0 mm 4 mps 748 mmHg 73%
19:00 +7°C° 0 mm 4 mps 749 mmHg 77%
20:00 +7°C° 0 mm 3 mps 749 mmHg 82%
21:00 +7°C° 0 mm 3 mps 749 mmHg 85%
22:00 +5°C° 0 mm 3 mps 749 mmHg 89%
23:00 +4°C° 0 mm 3 mps 749 mmHg 92%

19 April, Monday

Time Temperature Precipitation Wind Pressure Humidity
00:00 +4°C° 0 mm 3 mps 749 mmHg 92%
01:00 +3°C° 0 mm 3 mps 749 mmHg 92%
02:00 +3°C° 0 mm 3 mps 749 mmHg 92%
03:00 +3°C° 0 mm 3 mps 748 mmHg 91%
04:00 +3°C° 0 mm 3 mps 748 mmHg 90%
05:00 +3°C° 0 mm 3 mps 748 mmHg 89%
06:00 +3°C° 0 mm 3 mps 748 mmHg 88%
07:00 +4°C° 0 mm 4 mps 748 mmHg 86%
08:00 +4°C° 0 mm 4 mps 748 mmHg 85%
09:00 +5°C° 0 mm 4 mps 748 mmHg 82%
10:00 +5°C° 0 mm 4 mps 748 mmHg 79%
11:00 +6°C° 0 mm 4 mps 748 mmHg 77%
12:00 +6°C° 0 mm 4 mps 748 mmHg 75%
13:00 +7°C° 0 mm 5 mps 748 mmHg 73%
14:00 +8°C° 0 mm 5 mps 747 mmHg 71%
15:00 +8°C° 0.1 mm 4 mps 747 mmHg 72%
16:00 +8°C° 0.1 mm 4 mps 747 mmHg 73%
17:00 +8°C° 0.1 mm 4 mps 746 mmHg 73%
18:00 +7°C° 0 mm 4 mps 746 mmHg 76%
19:00 +7°C° 0 mm 4 mps 746 mmHg 79%
20:00 +6°C° 0 mm 4 mps 746 mmHg 82%
21:00 +6°C° 0 mm 4 mps 745 mmHg 85%
22:00 +5°C° 0 mm 5 mps 745 mmHg 87%
23:00 +5°C° 0 mm 5 mps 744 mmHg 89%

20 April, Tuesday

Time Temperature Precipitation Wind Pressure Humidity
00:00 +5°C° 0 mm 5 mps 744 mmHg 90%
01:00 +5°C° 0 mm 5 mps 744 mmHg 91%
02:00 +5°C° 0 mm 5 mps 743 mmHg 91%
03:00 +5°C° 0 mm 5 mps 743 mmHg 91%
04:00 +5°C° 0 mm 5 mps 742 mmHg 91%
05:00 +3°C° 0 mm 5 mps 742 mmHg 90%
06:00 +5°C° 0 mm 5 mps 741 mmHg 89%
07:00 +5°C° 0 mm 5 mps 741 mmHg 87%
08:00 +5°C° 0 mm 5 mps 741 mmHg 86%
09:00 +5°C° 0.1 mm 5 mps 740 mmHg 87%
10:00 +6°C° 0.1 mm 5 mps 740 mmHg 88%
11:00 +6°C° 0.1 mm 5 mps 739 mmHg 90%
12:00 +5°C° 0.1 mm 6 mps 739 mmHg 88%
13:00 +5°C° 0.1 mm 6 mps 738 mmHg 86%
14:00 +5°C° 0.1 mm 6 mps 738 mmHg 85%
15:00 +5°C° 0.1 mm 6 mps 737 mmHg 84%
16:00 +5°C° 0.1 mm 7 mps 737 mmHg 83%
17:00 +5°C° 0.1 mm 7 mps 736 mmHg 82%
18:00 +5°C° 0.8 mm 7 mps 736 mmHg 85%
19:00 +4°C° 0.8 mm 7 mps 735 mmHg 88%
20:00 +3°C° 0.8 mm 7 mps 735 mmHg 91%
21:00 +3°C° 0.9 mm 7 mps 734 mmHg 93%
22:00 +3°C° 0.9 mm 6 mps 734 mmHg 94%
23:00 +2°C° 0.9 mm 6 mps 733 mmHg 96%

21 April, Wednesday

Time Temperature Precipitation Wind Pressure Humidity
00:00 +2°C° 0.9 mm 6 mps 733 mmHg 96%
01:00 +2°C° 0.9 mm 5 mps 733 mmHg 96%
02:00 +2°C° 0.9 mm 5 mps 733 mmHg 96%
03:00 +2°C° 0.3 mm 5 mps 733 mmHg 96%
04:00 +2°C° 0.3 mm 5 mps 733 mmHg 96%
05:00 +1°C° 0.3 mm 6 mps 733 mmHg 96%
06:00 +1°C° 0.1 mm 6 mps 733 mmHg 96%
07:00 +1°C° 0.1 mm 6 mps 733 mmHg 96%
08:00 +1°C° 0.1 mm 6 mps 733 mmHg 96%
09:00 +2°C° 0.1 mm 6 mps 733 mmHg 95%
10:00 +2°C° 0.1 mm 6 mps 734 mmHg 94%
11:00 +2°C° 0.1 mm 6 mps 734 mmHg 93%
12:00 +3°C° 0 mm 6 mps 734 mmHg 90%
13:00 +4°C° 0 mm 6 mps 735 mmHg 86%
14:00 +5°C° 0 mm 6 mps 735 mmHg 82%
15:00 +6°C° 0 mm 5 mps 736 mmHg 79%
16:00 +7°C° 0 mm 5 mps 736 mmHg 75%
17:00 +7°C° 0 mm 5 mps 736 mmHg 71%
18:00 +7°C° 0 mm 5 mps 737 mmHg 74%
19:00 +6°C° 0 mm 4 mps 738 mmHg 78%
20:00 +5°C° 0 mm 3 mps 738 mmHg 81%
21:00 +4°C° 0 mm 3 mps 739 mmHg 85%
22:00 +4°C° 0 mm 4 mps 739 mmHg 88%
23:00 +4°C° 0 mm 4 mps 740 mmHg 91%
Show more